Regional Weather Roundup
Issued by NWS Midland/Odessa, TX

Home | Current Version | Previous Version | Text Only | Print | Product List | Glossary On
Versions: 1 2 3 4 5 6 7 8 9 10 11 12 13 14 15 16 17 18 19 20 21 22 23 24 25 26 27 28 29 30 31 32 33 34 35 36 37 38 39 40 41 42 43 44 45 46 47 48 49 50
000
ASUS44 KMAF 231410
RWRMAF
MIDLAND AREA WEATHER ROUNDUP
NATIONAL WEATHER SERVICE MIDLAND TX
800 AM CST TUE JAN 23 2018

...IN SOUTHWEST TEXAS AND SOUTHEAST NEW MEXICO...

CITY           SKY/WX    TMP DP  RH WIND       PRES   REMARKS
ALPINE         CLOUDY    19   3  50 SW5       30.27R WCI  12
ANDREWS        FAIR      24   6  46 NW5       30.24R WCI  18
ARTESIA        CLEAR     18  -2  41 NW7       30.23S WCI   8
BIG SPRING     CLOUDY    23   5  46 E3        30.29R
CARLSBAD       CLEAR     21   4  47 NW3       30.22R
DRYDEN           N/A    N/A N/A N/A N8        30.23R
FORT STOCKTON  CLOUDY    28   7  41 SE3       30.24R
GUAD PASS      PTCLDY    35   2  24 NE15      30.19S WCI  25
HOBBS          CLEAR     19   0  42 NW7       30.22R WCI  10
LAMESA         CLOUDY    21   1  42 N6        30.25R WCI  14
MARFA          CLOUDY    15   1  53 N7        30.22R WCI   5
MIDLAND AIRPK    N/A     29   9  43 N3        30.26R
MIDLAND INTL   CLOUDY    26   6  42 S3        30.24R
ODESSA         CLOUDY    30   6  36 SW3       30.24R
PECOS          PTCLDY    21   4  47 CALM      30.25R
PRESIDIO       FAIR      33   4  28 CALM      30.22S
SEMINOLE       CLOUDY    20   4  49 NW6       30.24R WCI  13
SNYDER         PTCLDY    29   5  35 CALM      30.26R
WINK           PTCLDY    17   2  51 N8        30.22S WCI   7
$$
...OTHER STATIONS IN TEXAS...

CITY           SKY/WX    TMP DP  RH WIND       PRES   REMARKS
ABILENE        CLOUDY    21  14  74 S3        30.27R
AMARILLO       CLOUDY    23   4  44 N6        30.22R WCI  16
AUSTIN         CLOUDY    27  26  96 CALM      30.29R
BROWNSVILLE    CLOUDY    54  47  77 NW6       30.24R
CORPUS CHRISTI CLOUDY    42  32  67 N5        30.27R WCI  39
DALLAS FTW     MOCLDY    38  20  48 NW9       30.24R WCI  31
DEL RIO        CLOUDY    28  25  88 CALM      30.27R
EL PASO        PTCLDY    31   5  33 N15       30.20R WCI  20
HOUSTON INT    MOCLDY    41  31  67 CALM      30.26R
LUBBOCK        CLOUDY    18  -2  41 CALM      30.22R
SAN ANGELO     CLOUDY    20   9  62 W6        30.27R WCI  12
SAN ANTONIO    PTCLDY    36  22  56 NW6       30.27R WCI  31
WACO           CLOUDY    28  20  71 W5        30.29R WCI  23
WICHITA FALLS  CLEAR     22  18  85 NW7       30.18R WCI  13
$$
...OTHER LOCATIONS IN NEW MEXICO...

CITY           SKY/WX    TMP DP  RH WIND       PRES   REMARKS
ALAMOGORDO     CLEAR     19   0  42 S3        30.23R
ALBUQUERQUE    CLEAR     21   9  59 N7        30.27R WCI  12
CANNON AFB     CLEAR     23   4  43 W8        30.19R WCI  14
CLOVIS         CLEAR     16   4  59 W5        30.19R WCI   9
HOLLOMAN AFB   PTCLDY    13  -6  43 CALM      30.25
ROSWELL        CLEAR     23   5  46 N6        30.22R WCI  16
RUIDOSO        NOT AVBL
SANTA FE       CLEAR     13   7  77 N21       30.22R WCI  -5
TRUTH OR CONSE CLEAR     23   3  42 NW6       30.24R WCI  16
TUCUMCARI      CLEAR     17  -2  43 N3        30.18R
$$




USA.gov is the U.S. government's official web portal to all federal, state and local government web resources and services.